Wind_Speed
29 28 28 30 31 30 28 27 26 26 28 30 31 30 28 28 27 27 27 28 30 30 30 32 36 38 38 38 39 40 41 41 40 39 38 38 40 42 42 41 41 41 40 38 35 33 33 33 34 35 34 35 36 36 36 36 36 35 34 34 34 32 31
25 23 22 23 26 27 26 25 23 22 23 26 30 31 30 28 28 27 26 26 28 29 29 28 31 35 37 37 39 39 39 40 41 40 40 39 39 39 40 41 42 42 39 37 35 32 31 31 32 34 35 35 36 35 35 36 36 36 35 34 34 33 32
22 21 20 19 20 21 21 21 20 20 21 22 26 30 31 30 29 29 28 27 27 27 27 26 27 30 32 34 37 37 37 37 38 39 40 40 40 40 38 38 40 41 39 38 36 33 32 31 32 33 34 33 33 34 35 36 37 36 35 34 33 32 32
21 21 21 20 21 22 21 21 20 21 22 23 24 28 31 30 29 29 30 30 28 26 26 26 26 27 28 29 32 34 34 34 35 36 37 39 40 41 41 39 38 38 38 38 37 35 34 33 32 32 32 32 33 33 35 36 36 34 33 32 31 31 31
20 21 21 21 22 23 24 24 23 23 24 25 26 27 30 31 29 28 29 30 29 28 27 27 27 27 27 27 29 31 32 32 33 34 35 36 38 40 42 42 41 39 38 38 37 35 34 32 31 32 32 33 34 35 36 36 35 33 31 30 30 30 30
20 21 22 23 24 25 27 28 28 29 28 28 28 27 29 32 32 30 28 28 28 27 27 27 27 27 27 28 29 31 31 32 32 32 33 34 34 36 38 40 42 41 40 40 39 37 35 33 33 33 33 34 35 36 37 36 35 33 32 31 32 31 31
21 22 23 26 27 28 31 32 33 34 33 30 29 28 28 29 31 32 31 29 27 27 28 28 25 24 25 27 29 31 31 32 32 32 33 32 32 33 34 36 38 39 40 41 41 39 37 36 35 35 35 35 35 35 36 36 37 37 36 34 33 32 32
23 23 24 26 29 31 33 34 35 35 32 30 30 29 27 27 28 29 31 31 29 29 30 29 26 25 26 26 27 28 29 31 32 33 33 33 32 33 33 35 36 37 38 39 41 41 40 37 36 36 36 36 37 39 39 39 38 37 35 33 33 33 33
26 25 25 26 28 29 31 32 34 33 30 30 31 29 25 26 27 28 29 31 31 31 30 28 26 26 26 26 27 27 26 27 29 32 33 34 34 34 34 35 35 36 37 37 39 40 40 39 38 39 39 40 42 43 43 41 39 36 33 31 32 34 33
29 28 28 28 28 27 27 29 31 31 29 29 31 30 27 26 26 27 28 29 30 31 32 32 29 27 27 28 28 27 28 28 27 29 31 32 33 34 35 35 36 36 36 37 38 40 40 41 42 42 43 45 44 43 42 41 40 38 35 33 33 34 32
27 30 30 30 28 24 23 25 26 26 27 28 29 31 31 29 27 26 27 27 27 27 30 32 32 31 31 31 29 27 27 28 28 28 29 30 31 32 33 34 35 37 37 38 39 40 41 42 44 45 45 45 44 44 43 42 41 38 37 35 35 35 33
20 22 24 24 23 20 20 21 22 22 23 25 27 29 31 29 27 27 26 26 26 26 27 30 31 31 31 31 30 29 27 25 26 28 29 30 30 31 32 32 33 34 36 38 40 42 42 44 45 45 45 46 46 46 45 42 40 38 37 37 36 36 34
14 14 15 16 18 20 22 22 21 20 21 22 23 26 28 27 25 26 26 27 27 28 28 30 31 31 30 29 30 29 24 21 20 21 23 26 28 30 31 31 31 32 33 36 38 41 44 45 45 44 45 46 46 45 44 42 40 39 38 37 35 34 31
11 10 9 11 15 19 21 20 18 18 19 20 21 22 24 24 24 25 26 27 28 28 29 31 31 31 30 30 30 27 22 19 18 18 19 21 24 28 29 30 30 30 32 34 37 39 40 42 44 45 45 44 43 44 43 41 41 40 38 36 34 31 28
11 10 9 11 13 14 14 14 13 13 14 16 17 19 20 22 24 26 27 27 28 28 29 31 32 32 31 31 30 27 23 21 21 22 23 23 23 25 26 29 30 30 31 34 36 37 37 38 40 43 45 43 41 41 39 37 37 37 35 34 31 29 28
13 11 10 11 12 12 12 13 13 13 14 14 14 16 18 20 22 25 26 27 28 28 29 31 32 32 31 31 31 29 27 25 25 27 28 27 26 26 25 27 29 29 30 32 34 35 36 37 38 39 42 42 40 38 36 34 34 34 33 32 31 30 29
13 10 9 9 10 11 12 14 14 14 15 15 15 17 18 20 21 23 24 26 27 28 29 30 31 32 32 32 32 32 31 30 29 30 30 29 31 31 29 27 27 29 31 32 33 34 35 36 36 36 37 38 37 36 34 34 35 35 33 31 31 31 29
13 11 10 10 10 11 12 13 14 14 15 16 17 18 20 22 23 24 25 26 27 27 28 29 29 30 31 33 33 32 31 29 29 30 31 32 34 36 34 31 28 30 33 33 34 35 35 35 34 34 34 34 34 34 34 34 35 34 32 31 31 29 26
15 14 12 12 11 11 12 14 14 12 13 14 16 18 20 23 25 26 27 27 27 28 29 29 29 30 31 31 31 31 29 28 29 32 33 34 37 39 38 34 31 32 34 35 35 36 37 35 33 33 32 32 32 32 32 32 32 31 30 29 28 26 24
19 17 14 12 11 10 12 13 12 12 13 15 18 21 23 25 26 27 28 28 28 28 29 29 29 29 30 30 30 31 30 28 29 34 35 35 38 41 39 36 33 34 35 36 35 35 36 35 32 31 32 32 31 30 30 29 28 26 26 25 24 24 23
21 20 16 13 11 11 12 12 12 14 16 17 19 21 22 23 25 26 26 27 28 28 28 28 27 27 28 30 30 31 30 27 27 33 37 36 36 38 37 35 34 34 35 36 35 33 33 32 31 31 31 31 30 28 28 27 26 25 24 23 22 23 22
21 21 15 11 12 13 12 11 11 13 14 14 16 16 16 18 21 21 22 23 24 24 24 24 24 24 25 26 27 26 25 23 23 30 35 33 30 32 34 34 34 34 35 36 35 32 32 32 32 32 31 30 28 27 26 26 26 25 23 22 22 21 20
21 24 20 16 15 13 9 8 11 13 12 13 15 14 13 13 13 14 16 17 18 19 18 17 17 18 19 19 19 19 20 20 21 27 32 29 25 29 32 33 33 34 35 36 35 33 32 33 33 32 31 29 27 26 26 25 24 22 21 21 21 20 18
24 26 26 25 23 17 9 7 11 13 13 14 15 13 9 7 8 8 9 10 10 10 10 10 11 11 12 13 14 14 16 18 20 26 28 24 22 26 30 31 33 34 35 36 36 34 33 33 32 31 30 28 26 25 24 22 19 19 19 19 18 16 15
26 28 29 28 26 22 15 10 9 11 12 14 14 9 4 3 4 4 3 3 4 5 5 5 6 7 9 11 12 13 15 17 19 23 23 20 21 25 28 30 32 33 35 37 37 35 33 32 30 29 28 26 24 22 19 17 17 17 16 15 15 14 13
30 30 29 26 23 22 20 14 10 9 10 12 10 3 2 3 4 5 4 4 4 4 4 4 6 9 11 11 12 14 14 15 18 20 20 19 22 25 25 26 29 32 34 36 36 35 32 29 27 26 25 23 20 18 16 16 16 15 14 13 13 12 12
31 28 27 27 25 23 20 14 7 6 8 10 6 2 5 3 3 4 3 4 5 4 5 8 10 11 12 13 14 15 14 16 19 21 20 20 22 22 21 22 25 28 31 33 34 34 30 26 24 23 23 20 17 15 16 16 14 14 13 12 12 11 11
28 26 26 28 26 24 20 13 4 3 6 9 4 3 4 2 1 3 3 5 6 6 9 13 14 14 14 15 15 15 17 20 23 23 20 20 22 20 18 20 24 27 30 32 33 32 28 24 23 22 20 17 15 15 16 15 14 13 12 12 11 11 10
24 23 24 23 20 19 18 10 2 1 5 7 3 2 2 1 0 3 4 5 6 8 13 17 18 17 16 17 16 18 22 25 26 24 22 22 22 21 19 20 24 28 29 30 30 28 26 24 23 21 18 16 16 16 16 15 14 13 12 12 11 10 10
17 18 21 20 17 16 15 10 5 4 5 3 3 2 2 2 1 2 4 5 6 10 15 18 19 18 17 18 19 21 25 27 26 24 24 24 23 20 17 19 23 25 25 26 26 26 24 23 21 19 18 18 18 18 17 16 14 13 12 12 11 10 9
13 14 17 18 17 16 14 10 7 5 3 4 5 3 2 2 0 1 3 3 6 12 17 19 20 19 18 19 21 24 26 26 24 22 22 22 21 17 15 18 21 21 22 23 24 23 21 20 19 19 19 19 19 19 18 17 15 14 12 11 10 9 8
14 15 15 16 16 15 14 11 6 3 6 8 6 3 2 2 2 3 3 3 6 12 16 18 19 19 19 21 22 24 25 24 21 20 20 21 20 17 16 17 19 20 20 21 21 21 20 19 19 20 20 20 20 19 17 16 15 13 12 10 9 7 7
13 15 16 17 16 14 13 10 4 7 11 10 5 3 4 6 5 4 2 2 6 11 15 17 18 19 20 20 21 23 23 21 19 18 19 19 18 17 17 18 18 18 19 19 19 20 21 21 21 21 21 20 19 18 16 15 14 12 11 9 8 6 5
13 15 16 18 17 15 12 8 7 11 12 9 6 7 8 9 7 5 3 3 6 10 12 14 16 18 19 19 20 21 20 18 17 18 18 17 15 15 16 17 17 18 19 19 21 22 22 22 22 22 21 21 20 18 16 14 13 11 10 8 6 5 4
16 16 16 17 17 16 13 9 9 11 10 9 9 9 9 8 7 7 5 5 7 8 10 11 14 16 18 18 19 19 18 16 16 17 16 15 14 14 14 16 17 19 20 21 22 23 22 22 22 21 20 19 17 16 15 13 12 10 8 7 5 4 4
17 17 15 13 15 17 15 9 8 10 11 10 7 6 5 5 7 8 7 6 6 8 9 10 12 14 17 17 17 17 17 16 16 16 14 12 11 10 11 15 18 20 21 22 23 22 22 22 21 20 18 16 15 14 12 11 10 8 7 6 5 5 6
Wind_Direction
285 278 272 264 259 261 264 266 269 269 269 269 270 269 267 264 262 263 263 259 252 250 253 253 248 245 243 242 241 240 240 238 235 231 229 230 233 236 236 232 231 234 239 241 240 237 236 235 233 232 233 233 234 234 235 235 235 233 232 233 235 236 236
286 277 275 270 262 259 260 263 267 270 271 270 268 266 266 266 263 260 262 263 258 251 249 253 253 248 246 244 243 242 241 240 238 234 230 228 229 232 235 234 232 233 235 238 238 234 232 231 230 231 230 230 231 232 233 235 235 234 232 233 236 237 237
291 286 283 279 271 265 264 266 270 274 275 277 273 265 264 267 264 258 257 260 261 256 250 252 256 253 249 246 244 244 244 242 241 238 234 230 227 228 231 232 231 231 232 235 237 236 233 230 227 227 227 227 228 229 231 233 233 233 234 236 237 237 236
294 293 289 282 275 269 267 268 272 276 277 279 279 269 262 265 265 259 256 257 260 260 253 251 254 255 253 250 248 247 246 245 244 242 239 235 231 228 227 228 229 230 232 236 238 238 236 233 229 228 228 226 225 225 227 229 230 231 234 236 236 235 233
291 290 286 282 280 276 272 271 270 274 276 277 279 273 264 263 264 262 258 255 258 263 260 254 249 249 252 254 253 251 248 245 244 243 243 240 237 233 230 228 229 231 233 236 239 239 236 232 229 228 228 226 224 222 222 224 227 229 230 231 231 230 229
286 284 280 276 276 274 272 271 269 270 274 273 273 272 266 261 261 264 263 257 253 255 262 262 252 245 246 250 251 251 249 247 245 244 244 243 241 239 236 233 231 231 233 236 238 240 238 233 228 225 224 224 223 222 221 222 222 223 225 226 226 226 228
282 277 274 270 269 269 267 267 267 269 271 269 267 267 265 261 260 261 262 260 255 254 261 266 259 249 245 243 246 248 247 247 247 246 246 246 245 243 240 237 234 232 231 233 235 238 238 235 230 225 224 224 222 221 223 224 222 220 221 222 225 229 232
281 277 272 267 265 267 266 265 265 264 264 264 264 262 262 262 261 259 258 257 257 259 263 263 258 254 250 242 240 244 245 244 245 246 247 248 248 246 243 241 237 233 231 231 233 235 236 234 229 225 223 222 219 218 220 222 224 225 225 227 231 235 236
281 278 271 265 264 266 265 262 259 256 256 261 262 257 258 263 263 261 260 256 252 254 257 257 255 256 257 250 240 237 240 243 243 244 246 247 247 246 244 242 239 235 232 230 230 231 232 230 227 224 221 218 218 219 219 220 223 226 229 232 236 239 239
277 274 270 268 268 266 262 258 254 252 253 257 255 251 253 260 262 262 261 257 252 251 252 253 254 254 256 257 249 237 233 236 239 242 244 246 248 247 245 242 239 236 233 228 225 226 226 226 225 224 223 222 222 222 222 222 223 226 228 229 233 237 238
274 270 267 267 267 265 259 256 255 255 255 253 249 248 249 253 258 261 261 255 251 250 250 251 252 252 253 258 259 251 240 234 234 237 240 243 247 248 248 246 242 239 235 229 225 224 224 225 226 225 224 224 224 223 223 224 225 226 228 229 231 233 233
278 267 261 262 264 264 259 257 257 259 258 253 248 249 250 251 254 258 257 254 251 250 249 249 251 252 252 252 256 258 254 242 233 232 234 237 241 244 246 247 247 244 240 233 228 225 223 225 228 227 225 224 224 224 223 224 225 228 230 232 232 232 231
290 267 258 259 261 261 261 260 258 258 257 254 253 252 249 249 253 256 255 254 253 251 249 248 250 253 253 251 252 255 255 247 238 235 233 232 236 240 242 244 245 247 246 242 236 230 227 228 228 228 228 228 226 224 223 223 225 228 229 231 232 232 233
300 274 267 267 260 258 261 261 258 257 256 255 256 254 249 249 254 257 256 255 254 252 250 248 247 250 253 254 255 256 253 247 244 243 239 236 236 237 238 239 241 244 245 244 240 237 236 235 232 232 234 232 228 227 227 227 228 229 229 230 231 231 232
318 306 312 310 296 287 279 269 265 268 266 260 256 254 252 252 254 255 255 253 252 252 251 249 248 248 250 252 253 252 247 245 246 244 240 239 243 244 241 239 238 239 240 240 239 239 240 239 237 236 237 236 233 232 231 231 233 235 234 231 226 224 224
331 327 329 319 311 307 292 278 277 279 276 268 259 256 255 254 254 254 253 252 252 252 251 250 250 250 249 249 248 247 245 244 247 246 240 240 248 252 248 243 240 240 240 240 239 239 238 238 237 237 238 237 235 233 230 229 231 232 231 226 220 219 220
334 326 317 299 287 285 280 276 278 278 274 270 264 261 261 260 258 257 255 254 253 252 250 247 246 247 248 247 248 249 249 246 246 246 243 243 248 249 247 245 241 239 240 240 239 237 236 236 235 235 237 236 234 232 229 227 226 226 225 221 219 219 219
332 318 308 297 286 282 282 283 282 277 273 271 267 265 265 264 263 261 259 257 254 253 252 249 246 246 247 248 249 249 250 248 246 245 244 245 245 242 240 240 237 234 233 232 233 233 233 233 233 233 234 234 233 231 230 229 229 228 225 222 221 221 220
344 331 318 307 300 298 301 302 298 288 279 274 271 269 269 267 265 262 260 257 255 255 255 252 249 247 247 249 249 247 247 247 245 244 243 243 240 236 235 236 234 230 227 223 224 227 226 226 228 228 230 231 230 229 228 229 231 232 229 226 223 222 223
356 343 331 321 314 311 312 312 306 297 287 279 274 272 270 267 263 259 258 256 255 255 256 254 252 250 249 249 248 248 248 246 243 242 241 239 237 235 234 234 231 229 225 218 216 219 220 219 219 220 223 225 224 222 222 224 226 228 229 227 226 226 228
356 346 340 336 329 317 311 309 301 292 287 282 278 274 268 262 259 258 258 258 257 257 256 254 253 252 250 247 244 246 248 243 238 238 237 235 236 236 234 232 226 221 217 211 209 211 213 211 208 209 214 218 218 216 217 219 220 222 225 226 227 230 230
350 344 338 326 313 304 302 303 300 297 295 294 291 285 275 266 261 260 259 258 257 257 255 254 253 253 251 247 243 244 243 233 226 229 229 230 234 233 230 227 219 210 206 204 205 206 205 203 201 204 209 213 212 212 214 217 219 222 224 225 226 228 226
345 343 340 332 319 310 307 312 314 315 318 315 309 301 290 275 263 258 258 257 256 256 256 255 251 249 247 243 238 237 230 217 214 219 221 223 227 226 223 219 212 205 202 202 202 201 199 199 201 205 208 209 210 212 215 217 219 220 221 222 222 222 218
348 343 341 338 333 332 337 334 323 322 325 326 322 313 296 267 249 247 253 253 251 248 244 242 240 236 231 224 219 218 212 204 206 211 213 217 220 217 216 214 207 203 201 200 198 198 196 197 200 205 208 210 211 213 214 214 215 216 217 217 215 211 210
351 343 338 336 335 334 331 322 313 313 320 329 331 324 299 220 204 207 212 209 207 208 210 219 221 212 203 199 197 197 195 196 201 204 206 209 207 205 208 209 204 200 200 198 197 196 195 196 200 205 210 212 212 211 210 211 213 213 211 208 205 205 211
348 341 339 339 338 333 325 316 305 304 322 339 344 348 141 147 156 155 151 153 160 169 177 179 181 181 180 178 177 181 186 190 193 193 193 194 195 198 205 207 202 200 199 197 196 196 197 199 202 205 206 206 204 203 204 207 207 203 200 201 205 210 215
346 343 344 344 343 338 331 326 313 298 327 351 2 131 151 153 149 144 153 159 156 152 150 152 158 161 163 165 168 175 181 180 180 182 181 183 189 197 204 205 203 202 200 199 199 200 199 200 200 198 195 194 196 199 202 200 196 193 196 203 207 213 217
340 339 342 342 342 339 334 334 330 299 344 5 20 153 170 180 131 122 147 158 152 149 147 147 148 150 157 166 171 172 172 173 176 179 179 181 186 192 197 199 199 199 200 201 202 200 198 196 194 191 190 192 196 196 193 190 189 190 196 202 206 212 220
334 339 344 344 346 345 342 349 22 339 354 14 43 152 190 237 129 125 153 165 161 157 152 148 148 154 164 172 172 167 167 170 173 174 175 179 184 187 189 193 195 197 199 201 202 200 198 194 191 190 192 193 191 186 184 187 189 189 192 199 205 213 220
339 350 354 352 352 351 351 358 7 354 7 46 113 146 188 241 285 138 164 176 168 160 155 153 155 161 169 173 170 167 167 170 171 170 172 178 182 183 185 189 192 195 197 199 199 199 197 194 191 191 190 186 182 181 181 184 185 186 192 199 204 209 216
349 353 357 356 353 347 344 343 339 350 45 120 134 136 175 210 261 145 167 170 163 160 160 160 161 164 170 173 170 169 169 171 171 170 172 177 178 177 180 183 186 190 192 193 194 195 194 193 191 187 182 178 179 182 182 182 184 186 191 197 201 207 215
355 355 1 5 360 351 349 347 346 45 115 131 128 117 146 141 98 111 140 150 163 164 163 166 167 168 171 172 169 168 169 170 170 171 173 176 176 175 177 179 181 184 187 188 188 188 186 185 182 178 176 175 178 181 182 184 185 186 189 193 198 205 216
2 4 10 16 13 6 4 6 30 106 121 128 123 105 115 114 105 106 105 127 164 167 166 170 172 170 171 172 169 168 169 169 170 172 175 176 176 174 173 174 176 178 179 180 181 179 176 174 172 173 174 174 177 181 184 185 185 185 187 192 196 203 219
15 12 15 19 21 20 20 36 88 113 119 124 122 118 122 122 123 127 122 137 168 169 167 171 173 171 169 170 169 168 167 166 169 172 172 171 170 167 164 165 169 171 172 173 173 171 169 169 171 175 176 175 177 180 183 184 185 186 189 193 200 212 232
18 18 18 20 25 29 36 59 92 106 115 123 124 127 132 127 120 123 127 145 170 173 166 167 171 170 168 168 168 167 163 159 159 163 162 159 158 159 161 165 167 167 167 167 167 167 169 171 173 176 178 179 181 182 183 186 188 191 195 203 217 241 266
19 21 24 26 29 35 42 56 78 100 122 132 118 105 117 119 114 116 117 127 154 169 165 163 167 168 166 166 167 165 162 156 153 152 151 148 149 156 164 167 166 164 164 164 166 169 172 173 174 176 179 182 184 185 187 191 195 202 212 226 245 267 282
Height
1364 1364 1363 1363 1364 1364 1365 1365 1365 1366 1366 1366 1366 1367 1368 1368 1369 1369 1370 1371 1372 1373 1374 1374 1376 1377 1379 1380 1382 1383 1385 1387 1389 1392 1394 1396 1397 1399 1400 1402 1405 1407 1407 1408 1409 1410 1411 1413 1415 1417 1420 1424 1427 1430 1432 1435 1438 1442 1445 1447 1449 1451 1453
1360 1359 1359 1359 1360 1360 1361 1361 1362 1362 1362 1362 1363 1363 1364 1365 1365 1366 1367 1367 1368 1369 1370 1371 1372 1373 1375 1377 1378 1380 1382 1383 1385 1388 1390 1392 1393 1394 1396 1398 1401 1403 1404 1404 1404 1406 1407 1409 1411 1413 1415 1418 1422 1425 1428 1430 1433 1437 1440 1442 1445 1447 1449
1356 1355 1355 1356 1356 1357 1357 1358 1358 1359 1359 1359 1359 1359 1360 1361 1361 1362 1363 1363 1364 1366 1367 1368 1369 1370 1371 1373 1374 1376 1378 1380 1381 1383 1385 1387 1389 1390 1392 1395 1397 1399 1401 1400 1401 1402 1403 1405 1407 1409 1412 1415 1418 1421 1424 1426 1429 1432 1435 1438 1441 1443 1445
1352 1352 1352 1352 1352 1352 1353 1354 1354 1355 1355 1355 1355 1356 1356 1357 1358 1358 1359 1360 1361 1362 1364 1365 1365 1366 1368 1370 1371 1372 1374 1376 1377 1379 1381 1383 1384 1386 1388 1391 1393 1396 1397 1397 1397 1398 1399 1402 1405 1407 1409 1412 1415 1417 1419 1421 1424 1428 1431 1434 1437 1439 1441
1348 1348 1348 1348 1348 1348 1349 1350 1350 1351 1351 1352 1352 1352 1353 1354 1354 1354 1355 1356 1357 1359 1360 1361 1362 1363 1365 1366 1367 1368 1370 1372 1373 1375 1377 1379 1380 1382 1384 1387 1389 1392 1393 1394 1394 1395 1397 1399 1402 1404 1406 1409 1411 1413 1414 1417 1420 1423 1426 1430 1432 1434 1437
1344 1344 1344 1344 1344 1344 1345 1345 1346 1346 1347 1348 1349 1349 1349 1350 1350 1351 1352 1353 1354 1355 1356 1357 1358 1359 1361 1363 1364 1365 1366 1368 1370 1371 1373 1375 1377 1379 1381 1383 1385 1387 1389 1390 1391 1392 1394 1396 1398 1400 1402 1404 1407 1409 1410 1413 1416 1418 1421 1423 1427 1430 1433
1339 1339 1339 1339 1340 1340 1340 1341 1341 1342 1343 1344 1345 1346 1346 1346 1347 1348 1348 1349 1351 1352 1352 1353 1355 1356 1358 1359 1360 1361 1363 1365 1366 1368 1369 1371 1373 1375 1377 1379 1381 1382 1384 1386 1388 1389 1390 1393 1395 1397 1399 1401 1404 1406 1408 1409 1410 1411 1413 1417 1422 1426 1429
1335 1334 1334 1335 1335 1335 1336 1336 1337 1338 1339 1339 1341 1342 1343 1343 1343 1344 1345 1346 1347 1348 1349 1350 1351 1352 1354 1355 1356 1358 1360 1361 1363 1364 1366 1368 1370 1372 1373 1375 1377 1378 1380 1383 1384 1385 1387 1389 1392 1394 1396 1398 1399 1400 1402 1404 1405 1407 1409 1413 1418 1421 1424
1331 1330 1330 1331 1331 1331 1332 1332 1332 1333 1334 1335 1337 1338 1339 1339 1340 1340 1341 1342 1343 1344 1345 1346 1347 1348 1350 1351 1353 1354 1356 1358 1359 1361 1362 1364 1366 1368 1369 1371 1373 1375 1377 1379 1381 1382 1383 1385 1387 1389 1391 1392 1392 1394 1396 1399 1403 1405 1407 1411 1414 1417 1420
1327 1326 1326 1327 1327 1327 1327 1327 1328 1329 1330 1331 1332 1334 1335 1335 1336 1336 1337 1338 1339 1340 1341 1342 1343 1345 1346 1347 1348 1350 1352 1353 1355 1357 1358 1360 1362 1364 1365 1367 1369 1371 1373 1375 1377 1379 1379 1380 1381 1383 1385 1387 1389 1392 1395 1397 1399 1401 1403 1407 1410 1413 1415
1322 1322 1323 1323 1323 1324 1324 1324 1324 1325 1326 1327 1329 1330 1331 1331 1332 1333 1333 1334 1335 1336 1337 1338 1340 1341 1342 1343 1344 1346 1348 1349 1351 1352 1354 1356 1358 1359 1361 1363 1365 1367 1369 1371 1373 1375 1376 1376 1377 1378 1381 1384 1387 1390 1391 1393 1396 1398 1400 1402 1405 1407 1410
1318 1318 1319 1319 1320 1320 1320 1320 1321 1322 1323 1323 1325 1326 1327 1328 1328 1329 1330 1331 1331 1333 1334 1335 1336 1337 1339 1340 1341 1343 1344 1345 1347 1348 1350 1352 1354 1355 1357 1359 1361 1363 1365 1367 1369 1371 1373 1373 1374 1375 1377 1380 1382 1385 1388 1390 1393 1395 1396 1398 1401 1403 1406
1314 1314 1315 1316 1316 1316 1317 1317 1318 1319 1319 1320 1321 1322 1323 1324 1325 1325 1326 1327 1328 1329 1330 1331 1333 1334 1335 1336 1338 1339 1340 1341 1343 1345 1346 1349 1350 1352 1353 1355 1357 1359 1361 1363 1366 1367 1368 1369 1371 1372 1373 1376 1379 1381 1384 1387 1390 1391 1393 1395 1397 1400 1403
1312 1312 1313 1313 1314 1314 1314 1314 1315 1316 1316 1317 1317 1318 1320 1320 1321 1321 1322 1322 1323 1325 1326 1328 1329 1330 1331 1333 1334 1336 1337 1339 1340 1342 1343 1345 1347 1348 1350 1351 1353 1355 1357 1360 1362 1363 1365 1366 1368 1369 1371 1374 1377 1379 1381 1384 1386 1388 1390 1392 1395 1398 1400
1310 1309 1309 1310 1310 1311 1311 1312 1312 1313 1314 1314 1314 1315 1316 1317 1317 1317 1317 1318 1319 1321 1322 1323 1325 1326 1328 1329 1330 1332 1334 1335 1337 1339 1340 1341 1342 1344 1346 1347 1349 1351 1353 1355 1357 1358 1361 1364 1366 1368 1369 1372 1375 1377 1380 1383 1386 1388 1389 1391 1393 1395 1397
1308 1307 1307 1307 1308 1309 1309 1309 1310 1310 1311 1311 1312 1312 1313 1313 1313 1313 1314 1314 1316 1317 1318 1319 1320 1322 1323 1324 1326 1327 1329 1332 1333 1335 1336 1337 1338 1340 1342 1343 1344 1347 1349 1351 1353 1355 1358 1361 1364 1366 1368 1370 1373 1376 1379 1382 1384 1385 1387 1389 1390 1391 1393
1306 1306 1306 1306 1306 1307 1307 1307 1307 1308 1308 1308 1309 1309 1309 1309 1310 1310 1310 1311 1312 1313 1314 1315 1316 1317 1319 1320 1321 1323 1325 1327 1329 1331 1332 1334 1335 1336 1337 1338 1341 1343 1345 1348 1350 1352 1355 1358 1361 1364 1366 1368 1371 1373 1376 1378 1379 1381 1383 1385 1387 1388 1390
1305 1305 1305 1305 1305 1305 1305 1304 1305 1305 1305 1306 1306 1306 1305 1305 1306 1306 1306 1307 1308 1308 1309 1310 1312 1313 1314 1315 1317 1319 1321 1323 1325 1326 1327 1329 1330 1331 1332 1334 1336 1339 1342 1344 1347 1349 1352 1355 1358 1361 1363 1365 1368 1370 1372 1374 1376 1378 1380 1382 1383 1385 1388
1304 1303 1303 1303 1303 1303 1302 1302 1302 1302 1302 1302 1302 1302 1302 1302 1301 1301 1301 1302 1303 1303 1304 1305 1307 1309 1310 1311 1312 1315 1316 1318 1320 1320 1321 1324 1325 1326 1327 1329 1332 1335 1338 1341 1343 1345 1348 1351 1355 1358 1360 1362 1364 1367 1369 1371 1374 1376 1378 1379 1381 1383 1385
1303 1302 1301 1301 1301 1301 1301 1300 1299 1299 1299 1299 1299 1298 1298 1297 1297 1296 1296 1297 1298 1299 1299 1300 1302 1303 1305 1306 1308 1309 1311 1313 1314 1315 1316 1318 1320 1320 1322 1326 1329 1332 1334 1337 1340 1342 1345 1348 1351 1354 1356 1358 1361 1363 1366 1369 1372 1374 1376 1378 1379 1381 1382
1302 1301 1300 1299 1299 1299 1299 1298 1297 1297 1296 1295 1294 1293 1293 1292 1291 1291 1292 1292 1293 1294 1295 1296 1297 1298 1300 1301 1303 1304 1306 1308 1309 1310 1311 1313 1315 1317 1320 1323 1326 1329 1332 1335 1337 1340 1343 1346 1349 1351 1353 1355 1358 1361 1364 1367 1370 1372 1374 1376 1377 1378 1379
1302 1301 1299 1298 1298 1297 1296 1296 1295 1294 1293 1292 1290 1289 1288 1288 1287 1287 1288 1288 1288 1289 1290 1292 1293 1294 1296 1297 1299 1300 1302 1304 1306 1307 1308 1310 1313 1316 1318 1321 1323 1327 1330 1332 1335 1338 1342 1344 1346 1348 1350 1353 1357 1360 1362 1365 1368 1370 1372 1373 1374 1375 1376
1301 1299 1297 1296 1295 1294 1293 1293 1292 1291 1290 1289 1287 1286 1285 1284 1284 1284 1284 1285 1285 1286 1287 1288 1290 1291 1293 1294 1296 1297 1298 1301 1303 1304 1306 1309 1313 1314 1316 1319 1322 1324 1327 1330 1333 1337 1339 1342 1344 1346 1349 1352 1355 1358 1361 1364 1366 1368 1369 1370 1371 1372 1374
1299 1297 1295 1293 1292 1291 1291 1291 1290 1289 1288 1286 1285 1283 1282 1282 1282 1282 1282 1283 1283 1284 1285 1286 1287 1289 1290 1291 1293 1295 1297 1299 1301 1302 1305 1309 1312 1313 1314 1316 1319 1322 1325 1328 1331 1334 1337 1340 1343 1345 1348 1351 1354 1356 1359 1362 1364 1365 1367 1368 1369 1371 1372
1296 1295 1293 1291 1289 1289 1288 1288 1288 1287 1286 1284 1283 1281 1281 1280 1280 1281 1281 1281 1282 1283 1283 1285 1286 1287 1288 1290 1292 1294 1296 1298 1299 1302 1305 1308 1310 1311 1313 1315 1318 1321 1324 1327 1330 1333 1336 1339 1342 1345 1348 1350 1353 1355 1357 1360 1362 1363 1365 1366 1368 1369 1370
1294 1292 1290 1288 1287 1286 1285 1285 1285 1284 1284 1283 1281 1280 1280 1280 1280 1280 1280 1281 1281 1282 1283 1283 1285 1286 1287 1289 1291 1293 1295 1297 1299 1302 1305 1308 1309 1311 1313 1316 1318 1321 1323 1326 1329 1332 1336 1339 1342 1344 1347 1350 1352 1354 1356 1358 1360 1362 1363 1365 1366 1367 1368
1292 1291 1288 1286 1285 1284 1282 1281 1282 1282 1282 1281 1280 1280 1280 1280 1280 1280 1281 1281 1281 1282 1282 1283 1284 1286 1288 1289 1291 1293 1295 1297 1300 1302 1304 1307 1309 1311 1314 1316 1319 1321 1324 1326 1329 1332 1335 1338 1341 1344 1346 1349 1350 1352 1354 1356 1358 1360 1362 1363 1364 1365 1366
1293 1291 1288 1285 1283 1282 1280 1279 1279 1280 1280 1280 1280 1280 1280 1280 1281 1281 1281 1281 1281 1282 1282 1283 1285 1287 1288 1290 1291 1293 1295 1297 1299 1302 1304 1306 1309 1312 1314 1316 1319 1321 1323 1326 1328 1332 1335 1338 1341 1344 1346 1347 1349 1351 1353 1355 1357 1359 1360 1361 1363 1364 1364
1294 1292 1289 1286 1284 1281 1279 1278 1278 1279 1279 1280 1280 1280 1280 1281 1282 1282 1282 1282 1282 1282 1283 1284 1286 1287 1289 1290 1292 1293 1295 1297 1299 1301 1304 1307 1309 1311 1314 1316 1318 1320 1323 1325 1328 1332 1335 1338 1340 1342 1344 1346 1347 1350 1353 1355 1356 1357 1359 1360 1362 1362 1363
1295 1293 1290 1287 1285 1282 1280 1279 1278 1278 1279 1279 1280 1280 1281 1282 1282 1282 1282 1283 1283 1283 1284 1285 1286 1288 1289 1290 1292 1294 1295 1297 1299 1302 1305 1307 1309 1311 1314 1316 1318 1321 1323 1326 1329 1332 1335 1337 1339 1341 1342 1344 1347 1350 1352 1354 1356 1357 1358 1360 1361 1361 1362
1295 1293 1290 1288 1285 1283 1281 1280 1279 1278 1279 1279 1280 1281 1282 1282 1283 1283 1283 1283 1284 1284 1285 1286 1287 1289 1290 1292 1293 1295 1297 1299 1301 1303 1306 1308 1310 1313 1315 1316 1319 1321 1324 1326 1329 1332 1334 1337 1338 1340 1342 1345 1347 1350 1352 1353 1355 1356 1358 1359 1360 1360 1360
1295 1293 1290 1288 1286 1283 1281 1280 1279 1279 1279 1280 1281 1282 1282 1283 1284 1284 1284 1285 1285 1286 1287 1288 1289 1290 1291 1293 1295 1296 1299 1301 1303 1305 1307 1308 1311 1313 1315 1317 1319 1322 1324 1327 1329 1331 1333 1336 1338 1340 1342 1345 1348 1350 1351 1353 1354 1355 1357 1357 1358 1358 1359
1295 1293 1290 1288 1286 1284 1282 1280 1280 1279 1280 1281 1282 1283 1284 1284 1285 1285 1286 1286 1287 1287 1288 1289 1291 1292 1293 1295 1297 1298 1301 1303 1305 1306 1308 1310 1312 1314 1316 1318 1320 1322 1324 1327 1329 1331 1333 1335 1338 1340 1343 1345 1348 1349 1351 1352 1353 1354 1355 1356 1357 1357 1357
1295 1293 1291 1289 1287 1285 1283 1282 1281 1281 1282 1283 1284 1285 1285 1286 1287 1287 1288 1288 1289 1289 1290 1291 1292 1294 1295 1297 1299 1300 1302 1304 1306 1308 1310 1311 1313 1315 1316 1318 1320 1322 1324 1326 1328 1331 1333 1336 1338 1341 1343 1345 1347 1349 1350 1351 1352 1353 1354 1354 1355 1355 1356
1296 1294 1292 1290 1289 1287 1285 1284 1284 1284 1284 1285 1286 1287 1287 1288 1288 1288 1289 1290 1291 1291 1292 1293 1294 1295 1297 1299 1300 1302 1304 1306 1308 1310 1311 1313 1314 1315 1317 1318 1320 1322 1324 1326 1329 1331 1334 1336 1339 1341 1343 1345 1346 1348 1349 1350 1351 1352 1353 1353 1353 1354 1354
1297 1295 1294 1292 1291 1289 1288 1287 1287 1286 1287 1287 1288 1289 1289 1290 1290 1290 1291 1291 1292 1293 1294 1295 1296 1297 1299 1301 1302 1304 1306 1308 1309 1311 1312 1314 1315 1316 1318 1319 1321 1323 1325 1327 1330 1332 1335 1337 1339 1341 1343 1345 1346 1347 1348 1349 1350 1351 1351 1352 1352 1352 1351